Location: Leiter
(44.7178°N, 106.2687°W)
Time: 13:03:55
(UTC+00:00)

DX 1 - Pass Details

Date: 07 July 2022
Orbit: 617 x 629 km, 98.4° (Epoch: 08 August)

Event Time Altitude Azimuth Distance (km) Brightness Sun altitude
Rises 03:24:52 0° 27° (NNE) 2,925 ? -5.4°
Reaches altitude 10° 03:27:30 10° 42° (NE) 2,011 ? -5.7°
Maximum altitude 03:30:55 22° 94° (E) 1,364 ? -6.2°
Drops below altitude 10° 03:34:20 10° 146° (SE) 1,992 ? -6.7°
Enters shadow 03:35:10 - 152° (SSE) 2,270 ? -6.8°
